loading
|

DELTA 1 DEB, 2707

Orbit data source: Space-Track

DELTA 1 DEB, 2707 is space debris in LEO originally from a launch on Thu, 26 Jan 1967 UTC launched from the Air Force Western Test Range (AFWTR). Debris objects in space refer to the collection of defunct objects orbiting the Earth. Examples of debris include non-operational satellites, rocket bodies, and fragments generated from explosions, collisions, or faulty payload assembly.

Loading next visibility...
Loading greatness...
DELTA 1 DEB details
Identifier
2707, 1967-006D
Orbit
LEO
Last TLE update1 day ago
Origin
Flag of USGSFC (US)
ManufacturerUnknown
MissionSpacecraft
Bus & MotorUnknown bus, Unknown motor
MassUnknown
Launch date (UTC)
1967-01-26 (58 years ago)
Launch vehicleUnknown
Launch site
Air Force Western Test Range (AFWTR)
Object type
Payload
Rocket body
Debris
Shape & HBRUnknown
Radar Cross SectionSmall (<0.1 m²)

Expand to show TLE details & history

TLE from 1 day ago
0 DELTA 1 DEB
1  2707U 67006D   24280.27967691  .00000029  00000-0  32702-3 0  9996
2  2707 101.8093 210.4279 0148819 173.4100 341.9548 12.79362997693593
Epoch: 2024-10-06T06:42Z
Definitive object data (Epoch: 2024-10-06T06:42:44.085Z)
Latitude24.63256°
Longitude-80.2063°
Altitude1,237.624 km
Speed7.289 km/s
True Right ascension02h 23m 36s
True Declination24° 30' 39"
Sunlit
Object was in full shadow at TLE epoch
Predictive object data (real-time)
Latitude5.29774°
Longitude-83.01987°
Altitude1,231.459 km
Speed7.293 km/s
Apparent Right ascension01h 34m 23s
Apparent Declination-15° 26' 20"
Sunlit
Object is in full shadow
Predictive observer data (real-time)
Local Sidereal Time12:35:17
Azimuth328.029° NNW
Elevation-62.335°
Doppler factor1
Orbital elements
Apogee1,456.427 km
Perigee1,226.66 km
Semi-major axis7,719.68 km
Eccentricity0.0148819
Inclination101.8093°
RAAN210.4279°
Arg. of periapsis173.41°
True anomaly341.41704°
Mean anomaly341.9548°
Eccentric anomaly341.68688°
Mean motion3.19996 °/min
BSTAR0.00032702
Period112.5 mins
No data available
No data available
Other satellites on launch #6 in the year 1967 (1967-01-26 UTC)

DELTA 1 DEB Visibility forecast

Observer location: 39.9160978°, -105.1181434

DELTA 1 DEB is not visible in the next 10 days
Span
Click to sort rows by Start time (UTC) header in descending order
Start Az.
Max El. time (UTC)
Max El. Az.
Max El.
End time (UTC)
End Az.